XNO224K EHAM-EGGD

Flight info

Callsign XNO224K
Flight time 1h 0m
Altitude 36000
Route IDRID L980 LAM L179 ICTAM
Aircraft A35K/H-SDE2E3GHIJ3J4J5LM1ORWXY/LB1D1

Departure

Time 2026-05-04 19:56
Airport Amsterdam Airport Schiphol (EHAM)

Arrival

Time 2026-05-04 20:56
Airport Bristol Airport (EGGD)
Time Latitude Longitude Altitude Speed Heading
2026-05-04 19:05 52.31140 4.77261 11 ft 0 kts
2026-05-04 19:23 52.31223 4.75603 10 ft 0 kts 86°
2026-05-04 19:24 52.31222 4.75588 10 ft 0 kts 86°
2026-05-04 19:25 52.31222 4.75586 9 ft 0 kts 86°
2026-05-04 19:34 52.31221 4.75569 9 ft 3 kts 86°
2026-05-04 19:35 52.31221 4.75538 10 ft 3 kts 75°
2026-05-04 19:35 52.31212 4.75508 14 ft 3 kts 40°
2026-05-04 19:35 52.31196 4.75488 12 ft 3 kts 20°
2026-05-04 19:35 52.31178 4.75474 13 ft 3 kts 36°
2026-05-04 19:36 52.31161 4.75455 12 ft 3 kts 16°
2026-05-04 19:36 52.31158 4.75453 11 ft 0 kts
2026-05-04 19:40 52.31162 4.75454 9 ft 3 kts
2026-05-04 19:40 52.31180 4.75457 9 ft 4 kts
2026-05-04 19:41 52.31249 4.75456 12 ft 13 kts 358°
2026-05-04 19:41 52.31344 4.75450 13 ft 15 kts 357°
2026-05-04 19:41 52.31442 4.75440 16 ft 10 kts 356°
2026-05-04 19:41 52.31499 4.75390 17 ft 10 kts 300°
2026-05-04 19:42 52.31507 4.75247 15 ft 15 kts 266°
2026-05-04 19:42 52.31502 4.75101 17 ft 7 kts 266°
2026-05-04 19:42 52.31498 4.75009 19 ft 9 kts 266°
2026-05-04 19:42 52.31494 4.74886 20 ft 13 kts 266°
2026-05-04 19:43 52.31491 4.74789 22 ft 8 kts 267°
2026-05-04 19:43 52.31488 4.74685 25 ft 10 kts 267°
2026-05-04 19:43 52.31485 4.74585 23 ft 8 kts 267°
2026-05-04 19:43 52.31482 4.74491 26 ft 11 kts 267°
2026-05-04 19:44 52.31479 4.74393 25 ft 8 kts 269°
2026-05-04 19:44 52.31515 4.74307 21 ft 10 kts 338°
2026-05-04 19:44 52.31583 4.74303 23 ft 10 kts 359°
2026-05-04 19:44 52.31651 4.74304 23 ft 8 kts
2026-05-04 19:45 52.31716 4.74308 24 ft 12 kts
2026-05-04 19:45 52.31820 4.74320 15 ft 19 kts
2026-05-04 19:45 52.31930 4.74329 14 ft 11 kts
2026-05-04 19:45 52.31994 4.74329 14 ft 8 kts 349°
2026-05-04 19:46 52.32027 4.74267 15 ft 7 kts 287°
2026-05-04 19:46 52.32033 4.74184 17 ft 7 kts 274°
2026-05-04 19:46 52.32035 4.74119 18 ft 0 kts 273°
2026-05-04 19:48 52.32035 4.74117 18 ft 1 kts 273°
2026-05-04 19:48 52.32037 4.74046 19 ft 9 kts 272°
2026-05-04 19:48 52.32040 4.73937 22 ft 10 kts 272°
2026-05-04 19:48 52.32044 4.73816 25 ft 11 kts 273°
2026-05-04 19:49 52.32052 4.73668 24 ft 15 kts 274°
2026-05-04 19:49 52.32065 4.73461 21 ft 21 kts 283°
2026-05-04 19:49 52.32165 4.73249 13 ft 27 kts 319°
2026-05-04 19:49 52.32319 4.73034 5 ft 28 kts 319°
2026-05-04 19:50 52.32422 4.72886 3 ft 18 kts 319°
2026-05-04 19:50 52.32638 4.72581 4 ft 23 kts 319°
2026-05-04 19:50 52.32754 4.72381 2 ft 26 kts 311°
2026-05-04 19:51 52.32833 4.72232 5 ft 10 kts 299°
2026-05-04 19:51 52.32841 4.72098 4 ft 15 kts 269°
2026-05-04 19:51 52.32867 4.71925 5 ft 17 kts 303°
2026-05-04 19:51 52.32946 4.71770 9 ft 18 kts 311°
2026-05-04 19:52 52.33030 4.71614 13 ft 16 kts 311°
2026-05-04 19:52 52.33078 4.71474 18 ft 14 kts 277°
2026-05-04 19:52 52.33027 4.71341 18 ft 16 kts 223°
2026-05-04 19:52 52.32937 4.71207 20 ft 19 kts 221°
2026-05-04 19:53 52.32878 4.71098 22 ft 11 kts 232°
2026-05-04 19:53 52.32869 4.71040 23 ft 0 kts 263°
2026-05-04 19:54 52.32869 4.71038 21 ft 2 kts 264°
2026-05-04 19:54 52.32871 4.70954 24 ft 10 kts 279°
2026-05-04 19:54 52.32922 4.70890 25 ft 11 kts 354°
2026-05-04 19:55 52.32949 4.70891 24 ft 0 kts
2026-05-04 19:55 52.33089 4.70904 18 ft 59 kts
2026-05-04 19:55 52.33768 4.70968 26 ft 134 kts
2026-05-04 19:56 52.34866 4.71049 399 ft 166 kts
2026-05-04 19:56 52.35987 4.71082 1465 ft 158 kts
2026-05-04 19:56 52.37199 4.71145 1890 ft 190 kts
2026-05-04 19:56 52.38582 4.71292 2457 ft 208 kts
2026-05-04 19:57 52.40093 4.71473 3100 ft 225 kts
2026-05-04 19:57 52.41732 4.71628 3666 ft 247 kts
2026-05-04 19:57 52.43438 4.71024 4407 ft 257 kts 330°
2026-05-04 19:57 52.44827 4.69186 5411 ft 258 kts 314°
2026-05-04 19:58 52.46000 4.66937 6457 ft 261 kts 301°
2026-05-04 19:58 52.46629 4.64160 7454 ft 262 kts 276°
2026-05-04 19:58 52.46727 4.61150 8493 ft 267 kts 269°
2026-05-04 19:58 52.46717 4.58069 9523 ft 273 kts 267°
2026-05-04 19:59 52.46411 4.55005 10427 ft 282 kts 250°
2026-05-04 19:59 52.45377 4.52211 11127 ft 300 kts 227°
2026-05-04 19:59 52.43671 4.49994 11591 ft 324 kts 217°
2026-05-04 19:59 52.41957 4.47402 11966 ft 348 kts 233°
2026-05-04 20:00 52.40660 4.43978 12702 ft 358 kts 242°
2026-05-04 20:00 52.39472 4.40353 13619 ft 364 kts 243°
2026-05-04 20:00 52.38274 4.36663 14490 ft 369 kts 243°
2026-05-04 20:00 52.37065 4.32945 15391 ft 373 kts 242°
2026-05-04 20:01 52.35836 4.29182 16229 ft 378 kts 242°
2026-05-04 20:01 52.34591 4.25367 17130 ft 380 kts 242°
2026-05-04 20:01 52.33334 4.21536 18089 ft 383 kts 242°
2026-05-04 20:01 52.32077 4.17727 18856 ft 388 kts 241°
2026-05-04 20:02 52.30607 4.13983 19593 ft 395 kts 234°
2026-05-04 20:02 52.28936 4.10404 20468 ft 398 kts 233°
2026-05-04 20:02 52.27226 4.06840 21315 ft 401 kts 233°
2026-05-04 20:02 52.25504 4.03254 22088 ft 406 kts 233°
2026-05-04 20:03 52.23745 3.99587 22908 ft 410 kts 233°
2026-05-04 20:03 52.21978 3.95903 23713 ft 413 kts 233°
2026-05-04 20:03 52.20194 3.92186 24369 ft 417 kts 232°
2026-05-04 20:03 52.18426 3.88505 25471 ft 408 kts 232°
2026-05-04 20:04 52.16695 3.84913 26644 ft 398 kts 231°
2026-05-04 20:04 52.15005 3.81405 27722 ft 390 kts 230°
2026-05-04 20:04 52.13340 3.77953 28793 ft 382 kts 230°
2026-05-04 20:04 52.11719 3.74593 29856 ft 373 kts 229°
2026-05-04 20:05 52.10132 3.71307 30781 ft 364 kts 229°
2026-05-04 20:05 52.08586 3.68113 31632 ft 355 kts 230°
2026-05-04 20:05 52.07085 3.65017 32266 ft 351 kts 230°
2026-05-04 20:05 52.05569 3.61896 32778 ft 352 kts 230°
2026-05-04 20:06 52.04049 3.58768 33176 ft 354 kts 230°
2026-05-04 20:06 52.02516 3.55621 33506 ft 357 kts 230°
2026-05-04 20:06 52.00971 3.52450 33829 ft 360 kts 231°
2026-05-04 20:06 51.99421 3.49227 34128 ft 364 kts 233°
2026-05-04 20:07 51.98069 3.45698 34294 ft 372 kts 242°
2026-05-04 20:07 51.97139 3.41752 34500 ft 378 kts 253°
2026-05-04 20:07 51.96674 3.37544 34813 ft 382 kts 263°
2026-05-04 20:07 51.96696 3.33198 35058 ft 389 kts 273°
2026-05-04 20:08 51.97222 3.28846 35272 ft 397 kts 283°
2026-05-04 20:08 51.98221 3.24631 35492 ft 405 kts 293°
2026-05-04 20:08 51.99670 3.20682 35709 ft 412 kts 303°
2026-05-04 20:08 52.01553 3.17121 35935 ft 420 kts 312°
2026-05-04 20:09 52.03940 3.14281 36028 ft 432 kts 330°
2026-05-04 20:09 52.06744 3.12665 36028 ft 437 kts 347°
2026-05-04 20:09 52.09783 3.12422 36031 ft 441 kts
2026-05-04 20:09 52.12768 3.13619 36027 ft 444 kts 21°
2026-05-04 20:10 52.15434 3.16165 36020 ft 446 kts 39°
2026-05-04 20:10 52.17547 3.19845 36024 ft 445 kts 57°
2026-05-04 20:10 52.18919 3.24323 36022 ft 442 kts 74°
2026-05-04 20:10 52.19537 3.29213 36027 ft 440 kts 85°
2026-05-04 20:11 52.19480 3.34152 36030 ft 435 kts 103°
2026-05-04 20:11 52.18560 3.38789 36022 ft 428 kts 121°
2026-05-04 20:11 52.16870 3.42704 36020 ft 420 kts 138°
2026-05-04 20:11 52.14576 3.45574 36021 ft 414 kts 154°
2026-05-04 20:12 52.12038 3.47766 36005 ft 407 kts 158°
2026-05-04 20:12 52.09464 3.49489 36011 ft 395 kts 161°
2026-05-04 20:12 52.06921 3.51149 36011 ft 392 kts 160°
2026-05-04 20:13 52.01874 3.54488 36001 ft 391 kts 161°
2026-05-04 20:13 51.96681 3.56545 36001 ft 385 kts 178°
2026-05-04 20:13 51.94017 3.56456 35996 ft 382 kts 189°
2026-05-04 20:14 51.91425 3.55535 36001 ft 380 kts 200°
2026-05-04 20:14 51.89013 3.53811 35996 ft 379 kts 211°
2026-05-04 20:14 51.86865 3.51355 35999 ft 378 kts 221°
2026-05-04 20:14 51.85138 3.48155 36004 ft 379 kts 239°
2026-05-04 20:15 51.84210 3.44175 36010 ft 384 kts 258°
2026-05-04 20:15 51.84032 3.39801 36018 ft 396 kts 269°
2026-05-04 20:15 51.84210 3.35295 36013 ft 407 kts 272°
2026-05-04 20:16 51.84701 3.25937 36021 ft 427 kts 270°
2026-05-04 20:16 51.84778 3.16135 36018 ft 444 kts 263°
2026-05-04 20:17 51.84213 3.06029 36024 ft 462 kts 262°
2026-05-04 20:17 51.83503 2.95552 36020 ft 470 kts 261°
2026-05-04 20:18 51.82907 2.86816 36017 ft 470 kts 262°
2026-05-04 20:18 51.82195 2.76295 36024 ft 470 kts 262°
2026-05-04 20:19 51.81481 2.65772 36013 ft 470 kts 262°
2026-05-04 20:19 51.80763 2.55252 36023 ft 470 kts 262°
2026-05-04 20:20 51.80027 2.44762 36025 ft 470 kts 261°
2026-05-04 20:20 51.79283 2.34307 36017 ft 472 kts 262°
2026-05-04 20:21 51.78532 2.23782 36025 ft 472 kts 261°
2026-05-04 20:21 51.77528 2.07866 36031 ft 473 kts 263°
2026-05-04 20:22 51.76930 1.97285 36028 ft 473 kts 263°
2026-05-04 20:22 51.76310 1.86766 36036 ft 473 kts 263°
2026-05-04 20:23 51.75662 1.76194 36034 ft 473 kts 262°
2026-05-04 20:23 51.75003 1.65616 36036 ft 473 kts 262°
2026-05-04 20:24 51.74341 1.55193 36034 ft 473 kts 262°
2026-05-04 20:24 51.73665 1.44620 36037 ft 473 kts 262°
2026-05-04 20:25 51.72983 1.34064 36043 ft 473 kts 262°
2026-05-04 20:25 51.72283 1.23506 36034 ft 473 kts 262°
2026-05-04 20:26 51.71573 1.12961 36032 ft 473 kts 262°
2026-05-04 20:26 51.70862 1.02472 36049 ft 474 kts 262°
2026-05-04 20:27 51.70125 0.91755 36046 ft 488 kts 262°
2026-05-04 20:27 51.69365 0.80842 36048 ft 490 kts 262°
2026-05-04 20:28 51.68601 0.69924 36048 ft 490 kts 262°
2026-05-04 20:28 51.67818 0.59012 36046 ft 490 kts 262°
2026-05-04 20:29 51.67027 0.48176 36051 ft 490 kts 262°
2026-05-04 20:29 51.66230 0.37236 36042 ft 492 kts 262°
2026-05-04 20:30 51.65413 0.26287 36042 ft 492 kts 261°
2026-05-04 20:30 51.64581 0.15342 36045 ft 492 kts 261°
2026-05-04 20:31 51.63577 0.04538 36046 ft 491 kts 258°
2026-05-04 20:31 51.62391 -0.05787 36044 ft 493 kts 258°
2026-05-04 20:32 51.61200 -0.16679 36005 ft 493 kts 261°
2026-05-04 20:32 51.60763 -0.22120 35483 ft 488 kts 261°
2026-05-04 20:32 51.60345 -0.27530 34661 ft 486 kts 261°
2026-05-04 20:33 51.59916 -0.32923 33745 ft 485 kts 261°
2026-05-04 20:33 51.59479 -0.38297 32750 ft 484 kts 260°
2026-05-04 20:33 51.59036 -0.43654 31858 ft 482 kts 259°
2026-05-04 20:33 51.58589 -0.48989 30990 ft 480 kts 259°
2026-05-04 20:34 51.58138 -0.54317 30100 ft 479 kts 259°
2026-05-04 20:34 51.57684 -0.59607 29093 ft 478 kts 259°
2026-05-04 20:34 51.57238 -0.64819 28387 ft 472 kts 259°
2026-05-04 20:34 51.56786 -0.70077 27750 ft 465 kts 259°
2026-05-04 20:35 51.56349 -0.75117 27153 ft 458 kts 259°
2026-05-04 20:35 51.55912 -0.80168 26527 ft 452 kts 259°
2026-05-04 20:35 51.55475 -0.85149 25919 ft 447 kts 259°
2026-05-04 20:35 51.55040 -0.90065 25294 ft 442 kts 259°
2026-05-04 20:36 51.54651 -0.94444 24739 ft 438 kts 259°
2026-05-04 20:36 51.54226 -0.99201 24155 ft 434 kts 259°
2026-05-04 20:36 51.53805 -1.03929 23553 ft 431 kts 259°
2026-05-04 20:36 51.53377 -1.08669 22883 ft 427 kts 259°
2026-05-04 20:37 51.52967 -1.13370 22282 ft 424 kts 262°
2026-05-04 20:37 51.52945 -1.18097 21794 ft 428 kts 275°
2026-05-04 20:37 51.53425 -1.22918 21558 ft 442 kts 279°
2026-05-04 20:37 51.54010 -1.27778 21024 ft 443 kts 279°
2026-05-04 20:38 51.54601 -1.32619 20425 ft 440 kts 279°
2026-05-04 20:38 51.55179 -1.37436 19926 ft 436 kts 279°
2026-05-04 20:38 51.55744 -1.42207 19463 ft 434 kts 279°
2026-05-04 20:38 51.56302 -1.46947 18994 ft 430 kts 279°
2026-05-04 20:39 51.56851 -1.51647 18636 ft 421 kts 279°
2026-05-04 20:39 51.57369 -1.56083 18371 ft 387 kts 279°
2026-05-04 20:39 51.57849 -1.60227 17891 ft 375 kts 279°
2026-05-04 20:39 51.58327 -1.64399 17496 ft 379 kts 279°
2026-05-04 20:40 51.58769 -1.68581 17150 ft 378 kts 276°
2026-05-04 20:40 51.59061 -1.72663 16841 ft 355 kts 275°
2026-05-04 20:40 51.59309 -1.76480 16403 ft 334 kts 275°
2026-05-04 20:40 51.59551 -1.80105 15951 ft 317 kts 275°
2026-05-04 20:41 51.59789 -1.83590 15707 ft 314 kts 275°
2026-05-04 20:41 51.59931 -1.87078 15298 ft 312 kts 267°
2026-05-04 20:41 51.59553 -1.90487 14905 ft 309 kts 249°
2026-05-04 20:41 51.58568 -1.93538 14620 ft 307 kts 237°
2026-05-04 20:42 51.57435 -1.96379 14277 ft 305 kts 236°
2026-05-04 20:42 51.56278 -1.99226 13943 ft 302 kts 235°
2026-05-04 20:42 51.55133 -2.02053 13585 ft 301 kts 236°
2026-05-04 20:42 51.53987 -2.04891 13292 ft 303 kts 236°
2026-05-04 20:43 51.52886 -2.07749 12923 ft 300 kts 241°
2026-05-04 20:43 51.52057 -2.10813 12522 ft 300 kts 248°
2026-05-04 20:43 51.51342 -2.13953 12075 ft 298 kts 249°
2026-05-04 20:43 51.50648 -2.17065 11740 ft 296 kts 249°
2026-05-04 20:44 51.49954 -2.20160 11417 ft 293 kts 249°
2026-05-04 20:44 51.49261 -2.23234 11097 ft 292 kts 249°
2026-05-04 20:44 51.48572 -2.26288 10793 ft 289 kts 249°
2026-05-04 20:44 51.47887 -2.29314 10473 ft 287 kts 249°
2026-05-04 20:45 51.47202 -2.32310 10166 ft 285 kts 249°
2026-05-04 20:45 51.46519 -2.35296 9852 ft 284 kts 249°
2026-05-04 20:45 51.45842 -2.38260 9535 ft 283 kts 249°
2026-05-04 20:45 51.45166 -2.41212 9230 ft 282 kts 248°
2026-05-04 20:46 51.44499 -2.44124 8935 ft 282 kts 249°
2026-05-04 20:46 51.43822 -2.47060 8619 ft 280 kts 248°
2026-05-04 20:46 51.43145 -2.49989 8317 ft 279 kts 249°
2026-05-04 20:46 51.42474 -2.52910 8019 ft 279 kts 249°
2026-05-04 20:47 51.41804 -2.55821 7724 ft 278 kts 249°
2026-05-04 20:47 51.41134 -2.58726 7439 ft 277 kts 249°
2026-05-04 20:47 51.40485 -2.61547 7241 ft 262 kts 250°
2026-05-04 20:47 51.39875 -2.64189 6988 ft 243 kts 249°
2026-05-04 20:48 51.39305 -2.66645 6754 ft 227 kts 250°
2026-05-04 20:48 51.38773 -2.68945 6495 ft 214 kts 250°
2026-05-04 20:48 51.38328 -2.71152 6249 ft 203 kts 259°
2026-05-04 20:48 51.38369 -2.73433 6137 ft 208 kts 281°
2026-05-04 20:49 51.38684 -2.75658 5945 ft 203 kts 284°
2026-05-04 20:49 51.39029 -2.77822 5590 ft 204 kts 285°
2026-05-04 20:49 51.39384 -2.80033 5320 ft 205 kts 285°
2026-05-04 20:49 51.39732 -2.82251 5137 ft 206 kts 285°
2026-05-04 20:50 51.40077 -2.84472 5053 ft 205 kts 284°
2026-05-04 20:50 51.40414 -2.86661 4794 ft 201 kts 284°
2026-05-04 20:50 51.40748 -2.88853 4388 ft 204 kts 285°
2026-05-04 20:50 51.40947 -2.91122 3971 ft 209 kts 268°
2026-05-04 20:51 51.40873 -2.93451 3561 ft 210 kts 275°
2026-05-04 20:51 51.40824 -2.95791 3165 ft 212 kts 257°
2026-05-04 20:51 51.40078 -2.97786 2801 ft 210 kts 222°
2026-05-04 20:51 51.38858 -2.98916 2545 ft 198 kts 190°
2026-05-04 20:52 51.37634 -2.98519 2474 ft 171 kts 139°
2026-05-04 20:52 51.37152 -2.96952 2487 ft 157 kts 87°
2026-05-04 20:52 51.37280 -2.95235 2486 ft 155 kts 79°
2026-05-04 20:52 51.37418 -2.93516 2486 ft 156 kts 83°
2026-05-04 20:53 51.37496 -2.91777 2488 ft 157 kts 85°
2026-05-04 20:53 51.37559 -2.90041 2488 ft 156 kts 84°
2026-05-04 20:53 51.37627 -2.88302 2486 ft 157 kts 85°
2026-05-04 20:53 51.37696 -2.86562 2310 ft 155 kts 84°
2026-05-04 20:54 51.37762 -2.84858 2103 ft 151 kts 84°
2026-05-04 20:54 51.37826 -2.83204 1899 ft 146 kts 83°
2026-05-04 20:54 51.37888 -2.81641 1700 ft 135 kts 83°
2026-05-04 20:54 51.37944 -2.80209 1526 ft 128 kts 83°
2026-05-04 20:55 51.38004 -2.78775 1370 ft 130 kts 83°
2026-05-04 20:55 51.38054 -2.77322 1127 ft 130 kts 85°
2026-05-04 20:55 51.38113 -2.75869 984 ft 133 kts 84°
2026-05-04 20:55 51.38167 -2.74399 756 ft 131 kts 85°
2026-05-04 20:56 51.38221 -2.72967 630 ft 125 kts 85°
2026-05-04 20:56 51.38272 -2.71778 630 ft 88 kts 86°
2026-05-04 20:56 51.38303 -2.71003 622 ft 46 kts 86°
2026-05-04 20:56 51.38318 -2.70638 617 ft 25 kts 87°
2026-05-04 20:57 51.38367 -2.70501 628 ft 13 kts
2026-05-04 20:57 51.38434 -2.70520 629 ft 7 kts 341°
2026-05-04 20:57 51.38470 -2.70588 628 ft 10 kts 285°
2026-05-04 20:57 51.38473 -2.70718 622 ft 14 kts 269°
2026-05-04 20:58 51.38466 -2.70888 622 ft 15 kts 266°
2026-05-04 20:58 51.38460 -2.71013 620 ft 8 kts 266°
2026-05-04 20:58 51.38471 -2.71067 632 ft 2 kts 333°
2026-05-04 20:58 51.38505 -2.71077 630 ft 6 kts 352°
2026-05-04 20:59 51.38530 -2.71080 624 ft 1 kts 356°
2026-05-04 20:59 51.38536 -2.71080 622 ft 0 kts 356°